www.pogodaiklimat.ru

Погода и климат >> Архив погоды >> Мадагаскар >> Пемба


ПОГОДА в Пембе

  • Прогноз погоды в Пембе
  • Монитор погоды в Пембе

АРХИВ ПОГОДЫ в Пембе

Время (UTC), дата Ветер
(напр.,м/с)
 
Видим.   Явления Облачность Т
(С)
Тd
(С)
f
(%)
Тe
(С)
Тes
(С)
Комфортность P
(гПа)
Po
(гПа)
Тmin
(С)
Tmax
(С)
R
(мм)
R24
(мм)
S
(см)
03 12.08 ЮЗ 4 25 км 4/4 600 м
[Cu med, cong Ac trans]
+20.3 +19.4 95 +24 +24 комфорт 1020.0 1014.1
06 12.08 ЮЗ 2 25 км 5/1 600 м
[Cu hum Ac trans Ci fib]
+24.0 +20.8 82 +30 +35 очень
душно
1021.6 1015.7 +18.3
09 12.08 ЮВ 7 25 км 3/1 600 м
[Cu hum Ac trans Ci fib]
+26.9 +21.1 71 +34 +38 очень
душно
1020.7 1014.9
12 12.08 ЮВ 6 30 км 3/3 600 м
[Cu med, cong Ci fib]
+27.3 +20.5 66 +34 +37 очень
душно
1018.5 1012.7
15 12.08 ЮВ 4 25 км 1/1 600 м
[Cu hum]
+25.4 +20.5 74 +31 +31 очень
душно
1019.0 1013.2
18 12.08 Ю 3 20 км 1/1 600 м
[Cu hum]
+23.4 +20.2 82 +31 +31 очень
душно
1020.2 1014.3 +28.1
21 12.08 Ю 3 20 км 1/1 600 м
[Cu hum]
+23.2 +20.4 84 +30 +30 очень
душно
1020.6 1014.7
00 13.08 ЮЗ 3 20 км ясно +19.3 +18.9 98 +22 +22 комфорт 1019.3 1013.4
03 13.08 ЮЗ 3 25 км 1/1 600 м
[Cu med, cong]
+18.7 +18.6 99 +20 +20 1020.0 1014.0
06 13.08 ЮЗ 2 15 км 3/3 600 м
[Cu med, cong]
+24.1 +21.5 85 +31 +36 очень
душно
1021.6 1015.7 +18.7
09 13.08 ЮВ 6 25 км 4/4 600 м
[Cu med, cong]
+27.6 +20.3 64 +34 +39 очень
душно
1021.8 1016.0
12 13.08 ЮВ 5 30 км 6/3 600 м
[Cu med, cong Ac trans]
+27.3 +21.9 72 +35 +38 очень
душно
1019.8 1014.0
18 13.08 Ю 4 25 км 3/3 600 м
[Cu med, cong Ac trans]
+24.1 +22.4 90 +31 +31 очень
душно
1020.6 1014.7 +28.5
21 13.08 ЮВ 4 25 км 9/3 600 м
[Cu med, cong Ac und]
+24.3 +22.8 91 +32 +32 очень
душно
1020.9 1015.1
00 14.08 ЮЗ 3 25 км 3/3 600 м
[Cu med, cong Ac trans]
+22.4 +21.7 96 +30 +30 очень
душно
1019.5 1013.6
03 14.08 ЮЗ 4 25 км 3/3 600 м
[Cu med, cong Ac trans]
+20.5 +19.9 96 +25 +25 комфорт 1020.7 1014.8
06 14.08 ЮЗ 6 25 км 9/4 600 м
[Cu med, cong Ac und]
+24.6 +21.6 83 +31 +32 очень
душно
1022.3 1016.4 +20.3
09 14.08 Ю 7 30 км 6/3 600 м
[Cu med, cong Ac und]
+28.5 +19.9 60 +35 +37 очень
душно
1022.1 1016.3
12 14.08 ЮВ 7 30 км 4/3 600 м
[Cu med, cong Ac trans]
+27.0 +21.6 72 +34 +36 очень
душно
1020.0 1014.2
15 14.08 Ю 6 30 км 5/3 600 м
[Cu med, cong Ac trans]
+25.4 +22.6 85 +33 +33 очень
душно
1020.2 1014.4
18 14.08 ЮВ 6 30 км 5/5 600 м
[Cu med, cong Ac trans]
+24.8 +22.7 88 +33 +33 очень
душно
1021.5 1015.7 +29.5
21 14.08 ЮВ 5 20 км 3/3 600 м
[Cu med, cong]
+24.1 +21.2 84 +30 +30 очень
душно
1021.7 1015.8
00 15.08 ЮЗ 4 20 км 1/1 600 м
[Cu hum]
+21.7 +19.2 86 +27 +27 душно 1020.8 1014.9
03 15.08 ЮЗ 3 10 км дымка 8/1 600 м
[Cu hum Ac und]
+20.1 +19.8 98 +24 +24 комфорт 1021.7 1015.8
06 15.08 ЮЗ 8 15 км 9/3 600 м
[Cu med, cong Ac und]
+24.4 +20.2 77 +30 +30 очень
душно
1023.6 1017.7 +20.0
09 15.08 Ю 9 30 км 8/3 600 м
[Cu med, cong Ac und Ci fib]
+28.0 +19.9 61 +34 +35 очень
душно
1022.7 1016.9
12 15.08 Ю 10 25 км 8/1 600 м
[Cu med, cong Ac und]
+27.6 +21.3 69 +35 +35 очень
душно
1020.7 1014.9
15 15.08 Ю 7 25 км 6/1 600 м
[Cu hum Ac und]
+25.5 +22.5 83 +33 +33 очень
душно
1020.4 1014.6
18 15.08 Ю 7 25 км 1/1 600 м
[Cu hum Ac trans]
+24.8 +22.9 89 +33 +33 очень
душно
1021.2 1015.4 +29.1
21 15.08 Ю 8 25 км 1/1 600 м
[Cu hum]
+23.2 +18.8 76 +29 +29 душно 1021.9 1016.0
03 16.08 ЮЗ 3 25 км 1/1 600 м
[Cu hum]
+19.7 +18.7 94 +23 +23 комфорт 1020.8 1014.9
06 16.08 ЮЗ 8 25 км 5/4 600 м
[Cu hum Ac trans]
+24.3 +19.9 76 +30 +30 очень
душно
1021.6 1015.7 +19.5
09 16.08 Ю 9 25 км 6/4 600 м
[Cu med, cong Ac und]
+28.5 +19.9 60 +35 +36 очень
душно
1020.8 1015.0
12 16.08 Ю 10 25 км 1/1 600 м
[Cu hum]
+27.9 +21.3 67 +35 +36 очень
душно
1017.6 1011.8
15 16.08 ЮВ 7 25 км 1/1 600 м
[Cu hum]
+25.0 +21.8 82 +32 +32 очень
душно
1018.0 1012.2
18 16.08 Ю 7 25 км 1/1 600 м
[Cu hum]
+24.6 +21.8 84 +31 +31 очень
душно
1019.1 1013.3 +29.4
21 16.08 Ю 8 25 км 1/1 600 м
[Cu hum]
+23.7 +21.1 85 +30 +30 очень
душно
1019.5 1013.6
00 17.08 ЮЗ 6 25 км 1/1 600 м
[Cu hum]
+21.7 +20.7 94 +28 +28 душно 1018.7 1012.8
03 17.08 ЮЗ 5 25 км 8/3 600 м
[Cu med, cong Ac und Ci sp]
+21.6 +19.6 88 +27 +27 душно 1018.7 1012.8
06 17.08 Ю 7 25 км 1/1 600 м
[Cu hum]
+24.7 +19.4 72 +30 +32 очень
душно
1020.7 1014.9 +21.3
09 17.08 Ю 9 30 км 3/3 600 м
[Cu med, cong]
+28.6 +18.6 55 +34 +35 очень
душно
1019.4 1013.6
12 17.08 ЮВ 7 30 км 3/3 600 м
[Cu med, cong Ac trans]
+28.0 +18.6 57 +33 +35 очень
душно
1017.2 1011.4
15 17.08 ЮВ 6 25 км 1/1 600 м
[Cu hum Ac trans Ci fib]
+25.0 +21.4 80 +32 +32 очень
душно
1017.2 1011.4
18 17.08 Ю 7 25 км 1/1 600 м
[Cu hum]
+24.5 +22.2 87 +32 +32 очень
душно
1018.9 1013.1 +29.5
21 17.08 Ю 9 25 км 8/8 600 м
[Cu med, cong Ac trans]
+23.4 +20.6 84 +31 +31 очень
душно
1019.6 1013.7
00 18.08 ЮЗ 6 25 км 1/1 600 м
[Cu hum Ac trans]
+21.2 +18.6 85 +26 +26 душно 1018.6 1012.7
03 18.08 ЮЗ 5 25 км 3/3 600 м
[Cu hum Ac trans]
+19.9 +18.1 89 +23 +23 комфорт 1018.6 1012.7
09 18.08 ЮЗ 5 30 км 1/1 600 м
[Cu hum]
+28.6 +15.4 45 +31 +40 жарко 1019.3 1013.5
12 18.08 ЮВ 9 30 км 1/1 600 м
[Cu hum Ci fib]
+27.3 +18.2 58 +32 +33 очень
душно
1017.2 1011.4
15 18.08 ЮВ 9 30 км 1/1 600 м
[Cu hum Ci fib]
+24.6 +21.0 80 +31 +31 очень
душно
1017.5 1011.7
18 18.08 ЮВ 8 30 км 1/1 600 м
[Cu hum Ci fib]
+24.2 +21.0 82 +30 +30 очень
душно
1018.5 1012.7
21 18.08 Ю 9 25 км 1/1 600 м
[Cu hum]
+22.7 +18.1 75 +28 +28 душно 1019.2 1013.3
00 19.08 ЮЗ 5 25 км 1/1 600 м
[]
+20.0 +17.1 83 +23 +23 комфорт 1018.6 1012.7

 

Местоположение метеостанции Пемба (Мадагаскар): широта -12.98 долгота 40.53 высота над уровнем моря 50 м.

В архиве по умолчанию представлена погода в Пембе за последнюю неделю. Архивные данные за месяц целиком и за предыдущие месяцы, начиная с января 2011 года, Вы можете получить, выбрав интересующий диапазон дат из раскрывающегося списка и нажав кнопку "Ввод!".


*Определитесь, кто Вы:
робот инопланетянин человек

Внимание! Время в таблицах - всемирное. Для получения местного времени необходимо прибавить поправку, которая равна 3 ч.

Смотрите также архив погоды в соседних городах и на ближайших метеорологических станциях:

Погода в Монтепуезе (Мозамбик) (163 км)
Погода в Лумбо (Мозамбик) (229 км)
Погода в Нампула (Мозамбик) (272 км)
Погода в Мтваре (Танзания) (305 км)
Погода в Маррупе (Мозамбик) (333 км)
Погода в Морони (Коморские Острова) (339 км)
Погода в Ангоче (Мозамбик) (367 км)
Погода в Куаба (Мозамбик) (479 км)
Погода на Острове Жуан-ди-Нова (Реюньон) (504 км)
Погода в Дзаудзи (Коморские Острова) (515 км)

Пояснения к столбцам:

Ветер - указаны скорость ветра в м/с - средняя за 10 мин, порывы в срок и между сроками (в фигурных скобках) и направление, откуда дует ветер: С - северный, СВ - северо-восточный, В - восточный, ЮВ - юго-восточный, Ю - южный, ЮЗ - юго-западный, З - западный, СЗ - северо-западный.
Видимость - горизонтальная дальность видимости в метрах или километрах. При видимости от 1 до 10 км при отсутствии осадков обычно наблюдается дымка, при ухудшении видимости до 1 км и менее - туман. В сухую погоду видимость может ухудшаться дымом, пылью или мглою.
Явления - указаны атмосферные явления, наблюдавшиеся в срок или в последний час перед сроком; фигурными скобками обозначены явления, наблюдавшиеся между сроками (за 1-3 часа до срока); квадратными скобками обозначены град или гололедные отложения с указанием их диаметра в мм.
Облачность - указаны через наклонную черту общая и нижняя облачность в баллах и высота нижней границы облаков в метрах; квадратными скобками обозначены формы облаков: Ci - перистые, Cs - перисто-слоистые, Cc - перисто-кучевые, Ac - высококучевые, As - высокослоистые, Sc - слоисто-кучевые, Ns - слоисто-дождевые, Cu - кучевые, Cb - кучево-дождевые. Подробнее классификацию облаков см. в Атласе облаков (PDF).
T - Температура воздуха - температура, измеренная на высоте 2 м над землей.
Td - Температура точки росы - температура, при понижении до которой содержащийся в воздухе водяной пар достигнет насыщения.
f - Относительная влажность воздуха - влажноcть воздуха, измеренная на высоте 2 м над землей.
Te - Эффективная температура - температура, которую ощущает одетый по сезону человек в тени. Характеристика душности погоды. При расчете учитывается влияние влажности воздуха и скорости ветра на теплоощущения человека.
Tes - Эффективная температура на солнце - температура, которую ощущает человек, с поправкой на солнечный нагрев. Характеристика знойности погоды. Зависит от высоты солнца над горизонтом, облачности и скорости ветра. Ночью, в пасмурную погоду, а также при ветре 12 м/с и более поправка равна нулю.
P - Атмосферное давление - приведенное к уровню моря атмосферное давление.
Po - Атмосферное давление - измеренное на уровне метеостанции атмосферное давление.
Tmin - Минимальная температура - минимум температуры воздуха на высоте 2 м над землей.
Tmax - Максимальная температура - максимум температуры воздуха на высоте 2 м над землей.
R - Количество осадков - Количество выпавших осадков за период времени, мм. При наведении курсора мыши на число - период времени, за который выпало указанное количество осадков.
R24 - Количество осадков - Количество выпавших осадков за 24 часа, мм.
S - Снежный покров - Высота снежного покрова, см. При наведении курсора мыши на число - состояние снежного покрова и степень покрытия местности в баллах.